N312YH -KSAN

Flight info

Callsign N312YH
Flight time N/A
Altitude VFR
Route
Aircraft C172/L-VGD/C

Departure

Time N/A
Airport -

Arrival

Time 2026-05-05 23:35
Airport San Diego International Airport (KSAN)
Time Latitude Longitude Altitude Speed Heading
2026-05-05 23:35 32.73339 -117.17874 19 ft 0 kts 185°
2026-05-05 23:37 32.73339 -117.17875 19 ft 0 kts 189°
2026-05-05 23:38 32.73332 -117.17887 19 ft 0 kts 280°
2026-05-05 23:38 32.73334 -117.17896 19 ft 5 kts 289°
2026-05-05 23:38 32.73332 -117.17958 20 ft 8 kts 207°
2026-05-05 23:38 32.73274 -117.17978 18 ft 10 kts 188°
2026-05-05 23:39 32.73219 -117.17927 16 ft 12 kts 107°
2026-05-05 23:39 32.73195 -117.17829 17 ft 14 kts 105°
2026-05-05 23:39 32.73166 -117.17711 18 ft 16 kts 106°
2026-05-05 23:39 32.73129 -117.17585 17 ft 16 kts 133°
2026-05-05 23:40 32.73093 -117.17552 17 ft 0 kts 144°
2026-05-05 23:40 32.73088 -117.17547 17 ft 5 kts 140°
2026-05-05 23:40 32.73056 -117.17531 18 ft 6 kts 182°
2026-05-05 23:40 32.73022 -117.17575 17 ft 11 kts 268°
2026-05-05 23:41 32.73055 -117.17730 16 ft 38 kts 286°
2026-05-05 23:41 32.73170 -117.18202 59 ft 72 kts 285°
2026-05-05 23:41 32.73333 -117.18800 266 ft 77 kts 286°
2026-05-05 23:41 32.73526 -117.19400 529 ft 77 kts 287°
2026-05-05 23:42 32.73877 -117.19859 755 ft 83 kts 332°
2026-05-05 23:42 32.74487 -117.19814 906 ft 95 kts 15°
2026-05-05 23:42 32.74971 -117.19274 1063 ft 103 kts 69°
2026-05-05 23:42 32.74952 -117.18428 1220 ft 109 kts 104°
2026-05-05 23:43 32.74761 -117.17514 1183 ft 114 kts 103°
2026-05-05 23:43 32.74585 -117.16630 1077 ft 110 kts 105°
2026-05-05 23:43 32.74292 -117.15834 981 ft 101 kts 142°
2026-05-05 23:43 32.73700 -117.15665 865 ft 81 kts 196°
2026-05-05 23:44 32.73176 -117.15855 746 ft 75 kts 219°
2026-05-05 23:44 32.72926 -117.16341 642 ft 72 kts 259°
2026-05-05 23:44 32.72909 -117.16974 390 ft 81 kts 273°
2026-05-05 23:44 32.73030 -117.17603 240 ft 72 kts 281°
2026-05-05 23:45 32.73118 -117.17974 118 ft 68 kts 282°
2026-05-05 23:45 32.73235 -117.18463 23 ft 50 kts 281°
2026-05-05 23:45 32.73321 -117.18830 18 ft 58 kts 285°
2026-05-05 23:45 32.73458 -117.19382 133 ft 76 kts 283°
2026-05-05 23:46 32.73691 -117.19956 374 ft 81 kts 313°
2026-05-05 23:46 32.74292 -117.20091 642 ft 98 kts
2026-05-05 23:46 32.74903 -117.19753 924 ft 100 kts 45°
2026-05-05 23:46 32.75104 -117.18974 1224 ft 102 kts 97°
2026-05-05 23:47 32.74914 -117.18141 1334 ft 109 kts 109°
2026-05-05 23:47 32.74676 -117.17246 1313 ft 116 kts 107°
2026-05-05 23:47 32.74445 -117.16351 1221 ft 111 kts 110°
2026-05-05 23:47 32.73971 -117.15710 1098 ft 100 kts 168°
2026-05-05 23:48 32.73314 -117.15791 917 ft 98 kts 205°
2026-05-05 23:48 32.72857 -117.16235 709 ft 83 kts 255°
2026-05-05 23:48 32.72892 -117.16936 408 ft 86 kts 279°
2026-05-05 23:48 32.73026 -117.17598 218 ft 74 kts 280°
2026-05-05 23:49 32.73157 -117.18151 45 ft 63 kts 283°
2026-05-05 23:49 32.73256 -117.18552 20 ft 39 kts 283°
2026-05-05 23:49 32.73341 -117.18903 23 ft 62 kts 285°
2026-05-05 23:49 32.73476 -117.19467 160 ft 76 kts 284°
2026-05-05 23:50 32.73653 -117.20069 400 ft 78 kts 287°
2026-05-05 23:50 32.73853 -117.20671 674 ft 77 kts 292°
2026-05-05 23:50 32.74257 -117.21107 911 ft 87 kts 333°
2026-05-05 23:50 32.74900 -117.21052 1100 ft 100 kts 11°
2026-05-05 23:51 32.75554 -117.20712 1249 ft 108 kts 39°
2026-05-05 23:51 32.75829 -117.19872 1356 ft 115 kts 92°
2026-05-05 23:51 32.75545 -117.18975 1443 ft 117 kts 119°
2026-05-05 23:51 32.75190 -117.18094 1483 ft 120 kts 116°
2026-05-05 23:52 32.74868 -117.17169 1480 ft 123 kts 107°
2026-05-05 23:52 32.74635 -117.16180 1525 ft 124 kts 106°
2026-05-05 23:52 32.74407 -117.15182 1521 ft 127 kts 106°
2026-05-05 23:52 32.74227 -117.14172 1563 ft 120 kts 103°
2026-05-05 23:53 32.73932 -117.13303 1470 ft 110 kts 137°
2026-05-05 23:53 32.73293 -117.12974 1322 ft 98 kts 189°
2026-05-05 23:53 32.72670 -117.13143 1206 ft 89 kts 204°
2026-05-05 23:53 32.72216 -117.13574 1023 ft 84 kts 260°
2026-05-05 23:54 32.72247 -117.14258 849 ft 80 kts 276°
2026-05-05 23:54 32.72364 -117.14891 650 ft 78 kts 283°
2026-05-05 23:54 32.72517 -117.15473 599 ft 71 kts 281°
2026-05-05 23:54 32.72632 -117.16018 499 ft 67 kts 284°
2026-05-05 23:55 32.72771 -117.16576 426 ft 73 kts 281°
2026-05-05 23:55 32.72923 -117.17185 354 ft 78 kts 282°
2026-05-05 23:55 32.73074 -117.17817 267 ft 78 kts 281°
2026-05-05 23:55 32.73219 -117.18402 111 ft 68 kts 283°
2026-05-05 23:56 32.73334 -117.18880 21 ft 49 kts 281°
2026-05-05 23:56 32.73424 -117.19248 18 ft 61 kts 287°
2026-05-05 23:56 32.73554 -117.19796 163 ft 74 kts 284°
2026-05-05 23:56 32.73777 -117.20348 423 ft 77 kts 314°
2026-05-05 23:57 32.74321 -117.20483 693 ft 85 kts
2026-05-05 23:57 32.74879 -117.20235 881 ft 87 kts 25°
2026-05-05 23:57 32.75220 -117.19643 1095 ft 92 kts 83°
2026-05-05 23:57 32.75086 -117.18864 1272 ft 99 kts 107°
2026-05-05 23:58 32.74904 -117.18074 1399 ft 101 kts 104°
2026-05-05 23:58 32.74736 -117.17243 1406 ft 108 kts 105°
2026-05-05 23:58 32.74540 -117.16372 1313 ft 108 kts 105°
2026-05-05 23:58 32.74126 -117.15669 1176 ft 103 kts 153°
2026-05-05 23:59 32.73469 -117.15574 998 ft 94 kts 194°
2026-05-05 23:59 32.72936 -117.15903 757 ft 89 kts 244°
2026-05-05 23:59 32.72855 -117.16625 515 ft 90 kts 272°
2026-05-05 23:59 32.72961 -117.17380 261 ft 96 kts 288°
2026-05-06 00:00 32.73138 -117.18091 86 ft 81 kts 287°
2026-05-06 00:00 32.73277 -117.18643 20 ft 58 kts 283°
2026-05-06 00:00 32.73391 -117.19087 36 ft 67 kts 283°
2026-05-06 00:00 32.73529 -117.19693 157 ft 82 kts 287°
2026-05-06 00:01 32.73717 -117.20325 399 ft 80 kts 292°
2026-05-06 00:01 32.74139 -117.20738 673 ft 85 kts 339°
2026-05-06 00:01 32.74774 -117.20642 916 ft 97 kts 10°
2026-05-06 00:01 32.75310 -117.20107 1125 ft 106 kts 61°
2026-05-06 00:02 32.75399 -117.19222 1301 ft 114 kts 101°
2026-05-06 00:02 32.75172 -117.18291 1416 ft 121 kts 108°
2026-05-06 00:02 32.74906 -117.17325 1428 ft 126 kts 108°
2026-05-06 00:02 32.74639 -117.16357 1304 ft 120 kts 109°
2026-05-06 00:03 32.74235 -117.15566 1157 ft 110 kts 149°
2026-05-06 00:03 32.73522 -117.15429 922 ft 104 kts 195°
2026-05-06 00:03 32.72838 -117.15667 687 ft 99 kts 228°
2026-05-06 00:03 32.72732 -117.16410 466 ft 98 kts 283°
2026-05-06 00:04 32.72918 -117.17149 283 ft 89 kts 287°
2026-05-06 00:04 32.73073 -117.17820 101 ft 73 kts 287°
2026-05-06 00:04 32.73197 -117.18318 20 ft 52 kts 286°
2026-05-06 00:04 32.73282 -117.18664 19 ft 49 kts 285°
2026-05-06 00:05 32.73557 -117.19810 287 ft 81 kts 286°
2026-05-06 00:05 32.73856 -117.20359 513 ft 85 kts 322°
2026-05-06 00:05 32.74454 -117.20574 751 ft 97 kts 353°
2026-05-06 00:06 32.75100 -117.20317 1034 ft 102 kts 33°
2026-05-06 00:06 32.75461 -117.19576 1223 ft 112 kts 80°
2026-05-06 00:06 32.75402 -117.18941 1333 ft 117 kts 109°
2026-05-06 00:06 32.75127 -117.18024 1479 ft 119 kts 109°
2026-05-06 00:07 32.74779 -117.16756 1483 ft 118 kts 109°
2026-05-06 00:07 32.74609 -117.16157 1420 ft 112 kts 112°
2026-05-06 00:07 32.74164 -117.15482 1247 ft 103 kts 163°
2026-05-06 00:07 32.73483 -117.15450 1068 ft 97 kts 195°
2026-05-06 00:08 32.72934 -117.15750 936 ft 80 kts 239°
2026-05-06 00:08 32.72810 -117.16356 720 ft 80 kts 272°
2026-05-06 00:08 32.72883 -117.17050 493 ft 87 kts 284°
2026-05-06 00:08 32.73055 -117.17695 228 ft 80 kts 291°
2026-05-06 00:09 32.73190 -117.18295 28 ft 64 kts 286°
2026-05-06 00:09 32.73292 -117.18703 19 ft 50 kts 286°
2026-05-06 00:09 32.73421 -117.19238 65 ft 80 kts 285°
2026-05-06 00:09 32.73581 -117.19880 309 ft 79 kts 288°
2026-05-06 00:10 32.73930 -117.20372 598 ft 79 kts 328°
2026-05-06 00:10 32.74513 -117.20389 905 ft 89 kts
2026-05-06 00:10 32.75060 -117.20004 1109 ft 99 kts 48°
2026-05-06 00:10 32.75247 -117.19211 1325 ft 108 kts 96°
2026-05-06 00:11 32.75050 -117.18347 1477 ft 109 kts 108°
2026-05-06 00:11 32.74799 -117.17493 1466 ft 110 kts 110°
2026-05-06 00:11 32.74578 -117.16621 1497 ft 111 kts 107°
2026-05-06 00:11 32.74370 -117.15754 1475 ft 105 kts 108°
2026-05-06 00:12 32.74141 -117.14940 1351 ft 100 kts 125°
2026-05-06 00:12 32.73632 -117.14557 1165 ft 97 kts 186°
2026-05-06 00:12 32.73028 -117.14713 1032 ft 85 kts 205°
2026-05-06 00:12 32.72583 -117.15154 820 ft 85 kts 257°
2026-05-06 00:13 32.72613 -117.15802 705 ft 70 kts 282°
2026-05-06 00:13 32.72723 -117.16376 538 ft 72 kts 284°
2026-05-06 00:13 32.72862 -117.16958 357 ft 75 kts 287°
2026-05-06 00:13 32.73009 -117.17552 139 ft 73 kts 285°
2026-05-06 00:14 32.73137 -117.18068 19 ft 52 kts 285°
2026-05-06 00:14 32.73209 -117.18362 19 ft 21 kts 292°
2026-05-06 00:14 32.73307 -117.18424 20 ft 16 kts 32°
2026-05-06 00:14 32.73310 -117.18307 18 ft 16 kts 103°
2026-05-06 00:15 32.73273 -117.18153 18 ft 22 kts 105°
2026-05-06 00:15 32.73281 -117.17988 19 ft 20 kts 32°
2026-05-06 00:15 32.73383 -117.17967 21 ft 11 kts 304°
2026-05-06 00:15 32.73389 -117.17984 22 ft 0 kts 283°